User: anonymous   Login
Location: *
(41.0833°N, 73.4167°W)
Time: 13:49:28
(UTC+00:00)
Language:

Cosmos 1484 Rocket - Orbit

View from above orbital plane
View from above orbital plane
View from above satellite
View from above satellite

Ground track
Ground track

The orbit data is extracted from the following two-line orbital elements,

1 14208U 83075B   19348.96024007 +.00000120 +00000-0 +10898-4 0  9994
2 14208 097.3791 333.8942 0037628 226.2560 133.5554 15.11021294984715
Epoch (UTC): 14 December 2019 23:02:44
Eccentricity: 0.0037628
inclination: 97.3791°
perigee height: 507 km
apogee height: 559 km
right ascension of ascending node: 333.8942°
argument of perigee: 226.2560°
revolutions per day: 15.11021294
mean anomaly at epoch: 133.5554°
orbit number at epoch: 98471

The dashed part of the orbit path shows where the satellite is in the earth's shadow,  

DLR